Theta_e
307 306 305 304 304 304 303 301 301 300 300 299 299 298 297 297 294 294 289 289 286 286 287 286 287 288 288 287 287 287 286 288 289 288 287 285 284 291 293 295 295 294 294 293 293 293 293 293 293 293 293 294 294 295 295 296 296 296 296 296 297 298 298 298 298 297 298 297 297 298 297 297 297 298
306 305 305 304 303 304 302 302 301 299 299 298 298 298 298 298 296 295 294 295 289 288 286 288 286 286 287 287 286 287 287 289 288 287 287 285 284 289 292 293 294 294 294 294 293 292 291 291 292 292 292 293 294 295 295 296 296 296 296 297 297 297 297 297 296 296 296 296 296 296 296 296 297 297
305 304 304 303 303 303 302 301 299 298 298 298 297 297 296 295 297 296 295 293 291 292 287 285 286 284 286 286 286 286 286 288 288 287 286 286 287 289 290 292 293 293 293 292 291 291 292 292 292 292 292 293 294 295 295 295 295 295 295 295 296 295 296 295 294 294 294 294 294 294 295 295 296 296
304 303 302 301 301 301 299 298 297 296 295 296 296 295 295 295 294 295 294 293 294 285 285 285 285 285 285 286 284 284 285 287 288 286 286 286 288 287 287 291 291 291 291 290 290 290 290 291 291 292 292 293 293 293 294 293 294 293 294 294 294 293 293 292 292 292 292 292 293 293 293 294 294 295
301 300 300 300 300 300 298 298 297 296 296 295 295 294 293 293 293 292 292 292 292 285 284 285 284 285 285 284 284 283 283 284 286 286 285 286 285 284 284 285 288 289 289 289 289 289 290 291 291 292 291 291 292 292 292 292 291 291 292 291 292 291 291 291 291 291 291 291 292 292 292 293 293 293
298 297 297 298 298 298 297 297 296 296 294 293 293 293 292 293 292 292 292 292 292 291 282 284 283 283 285 283 284 283 282 283 284 283 283 284 283 283 282 282 285 288 288 288 288 288 289 290 291 290 290 290 290 290 291 290 290 290 290 289 289 289 289 289 289 289 290 290 291 291 291 291 292 292
296 295 295 296 297 297 295 295 295 294 294 293 293 293 292 292 292 292 292 292 290 290 284 283 282 282 283 283 283 283 283 283 283 282 282 282 282 283 283 282 283 287 288 288 288 288 289 289 289 289 289 289 289 289 289 289 288 288 288 287 286 286 287 288 288 288 289 289 290 290 290 290 291 291
295 295 294 295 295 294 294 294 294 294 293 293 292 292 292 291 291 292 290 291 292 290 284 282 282 282 282 283 283 283 283 282 282 282 282 282 282 282 282 282 282 286 288 288 287 287 288 287 287 287 287 288 288 288 288 287 287 286 285 285 285 286 286 286 287 287 287 288 289 289 289 289 289 290
296 295 295 295 295 294 293 293 293 292 291 292 291 291 292 291 291 291 290 289 289 287 285 281 282 282 282 282 282 282 281 281 281 282 281 281 281 281 282 282 283 286 287 287 286 286 286 286 286 286 286 287 287 287 287 286 285 284 284 284 284 285 285 286 286 286 286 286 286 286 288 288 288 288
295 295 295 295 294 294 293 293 293 292 291 291 291 290 291 290 290 289 288 288 287 287 285 282 281 282 280 281 281 282 282 280 280 280 280 281 281 281 280 281 280 281 281 280 281 283 285 285 285 285 285 286 285 285 285 285 284 282 282 283 284 284 285 285 285 285 285 285 285 285 286 286 287 287
294 294 294 294 294 294 293 293 293 292 291 291 290 290 290 290 288 288 287 286 286 286 284 283 282 281 282 281 280 281 282 282 281 280 280 279 280 280 281 280 280 280 281 283 283 283 283 284 283 284 284 284 284 284 284 283 282 282 282 283 284 284 284 284 284 284 284 284 283 284 283 284 285 285
293 294 294 294 294 294 293 293 293 292 291 290 290 290 289 288 287 287 286 285 285 285 284 282 281 281 280 280 281 281 282 281 281 282 281 280 279 279 280 280 279 280 280 279 281 283 283 283 283 284 283 283 283 283 282 282 281 281 282 283 283 283 283 283 283 283 283 282 282 282 282 282 283 284
292 292 292 292 293 291 290 291 291 292 292 290 289 288 288 287 287 286 285 285 285 285 284 282 282 280 280 279 279 279 280 280 280 281 282 281 281 279 278 279 280 280 279 279 279 279 280 279 279 278 278 280 281 280 281 280 281 281 282 283 283 282 282 282 282 282 282 282 281 281 281 281 281 282
291 291 291 291 289 289 289 289 290 291 291 291 291 290 287 287 286 286 285 285 285 284 283 282 281 280 279 279 280 280 281 282 281 280 281 279 278 279 278 279 279 279 279 278 278 279 279 278 278 277 277 278 279 278 278 279 280 280 281 282 281 281 281 281 281 281 281 281 281 280 280 280 280 280
290 290 290 290 289 288 288 288 289 290 291 290 290 290 289 288 287 286 285 285 285 284 284 283 281 281 280 280 281 281 281 281 281 281 281 279 278 278 276 275 277 279 279 278 277 277 278 278 276 276 277 277 276 277 277 280 280 280 281 280 280 280 280 280 280 280 280 280 280 280 280 280 280 280
290 290 289 289 289 289 289 288 288 288 289 290 290 289 288 288 289 289 287 285 284 284 283 282 282 281 281 281 282 281 281 280 281 280 280 279 278 278 278 277 275 278 280 278 277 276 277 277 277 275 275 275 275 276 278 279 279 280 280 279 279 279 279 279 279 279 279 279 279 279 279 279 279 279
289 289 288 288 288 288 286 287 287 287 287 288 289 288 287 288 288 289 290 289 286 286 284 282 282 282 282 281 281 282 282 282 280 279 279 279 279 279 278 278 277 278 280 278 276 274 276 276 275 274 274 274 273 272 276 278 278 278 278 278 278 278 278 278 278 278 278 278 278 278 278 278 278 278
289 288 288 287 287 286 285 286 286 286 286 286 286 285 285 285 286 288 289 287 287 287 285 284 282 284 284 282 283 283 284 281 280 279 278 279 278 278 278 278 278 278 279 277 275 271 273 274 274 274 273 273 272 271 275 277 277 277 277 277 277 277 277 277 277 277 277 277 277 277 278 278 278 278
289 288 288 287 287 286 285 285 286 285 285 285 285 285 285 285 285 285 285 286 285 285 285 285 285 284 285 284 284 283 284 283 282 281 280 280 279 278 278 276 276 275 276 276 274 269 272 272 271 272 271 271 270 270 273 275 275 276 276 276 276 276 276 276 276 276 276 277 277 277 277 277 278 278
288 288 288 287 286 285 285 285 287 286 285 285 284 284 284 284 284 284 285 287 287 286 285 285 285 285 285 285 284 283 283 282 281 281 280 279 278 277 275 273 273 272 273 274 274 269 269 270 270 269 269 269 268 269 267 272 274 275 275 275 275 275 275 275 275 275 276 276 276 276 277 277 277 277
287 287 286 286 286 285 284 286 288 288 286 285 284 283 283 283 283 283 285 287 288 288 288 287 287 287 287 287 287 286 286 283 281 279 278 276 277 275 274 273 273 271 271 271 273 271 267 268 266 265 266 267 267 267 267 267 272 273 273 273 273 273 274 274 274 275 275 275 275 275 276 276 276 275
286 285 285 285 285 284 284 286 288 288 286 284 284 283 282 282 282 282 284 284 285 287 287 287 287 287 287 287 287 287 286 285 283 279 277 277 277 275 274 273 272 270 270 270 272 268 265 263 264 261 262 261 263 266 267 267 268 270 270 271 272 272 273 273 273 273 274 274 274 274 275 275 275 271
284 284 284 285 285 285 285 288 288 288 286 285 284 283 283 282 281 282 283 283 283 283 283 284 284 285 285 285 284 284 285 284 282 281 279 278 277 275 274 272 271 270 270 270 272 265 262 264 263 261 259 258 258 262 263 265 265 266 266 266 266 270 270 271 271 271 272 272 273 273 274 274 274 270
283 283 283 284 286 286 287 288 289 288 287 285 284 284 283 282 281 283 283 283 283 282 282 281 280 279 280 280 281 281 281 280 279 279 279 278 277 275 274 273 272 268 267 269 272 265 258 260 259 261 260 259 257 260 262 262 264 265 265 264 263 267 268 268 267 269 270 270 271 271 272 273 273 269
282 281 282 283 285 287 287 288 289 288 288 286 285 285 284 284 283 283 282 282 283 280 279 278 278 277 277 277 277 276 276 275 276 276 276 276 277 275 273 271 271 266 265 269 273 265 259 256 257 257 257 256 255 256 260 263 263 264 264 264 263 264 264 264 265 264 266 268 268 269 270 272 272 270
281 281 282 282 284 286 287 288 288 288 288 287 285 285 286 286 285 283 282 281 280 279 278 277 276 275 275 274 274 273 272 272 272 272 272 272 270 271 271 272 270 265 263 268 274 262 258 256 258 254 253 256 256 258 257 258 261 262 263 263 263 263 264 263 263 263 263 263 263 265 267 270 270 271
281 282 282 282 284 286 287 288 289 288 288 287 285 287 287 286 285 283 281 280 279 278 277 276 274 274 274 273 271 270 269 269 269 268 268 268 268 267 266 266 267 266 264 264 265 263 257 252 257 259 256 256 254 256 257 256 256 259 261 261 262 263 263 263 262 262 262 262 262 266 266 267 268 269
281 282 282 283 285 286 286 287 288 288 287 285 287 287 286 285 283 281 280 279 278 277 276 275 273 273 273 272 271 269 268 266 266 265 264 265 265 264 263 264 263 263 263 262 261 261 258 254 255 257 258 258 254 253 252 258 259 259 258 261 261 261 262 262 262 261 262 262 261 262 261 261 262 263
282 283 284 284 285 286 286 287 288 287 286 287 287 287 286 283 281 280 279 278 277 276 275 275 274 273 272 271 270 267 265 265 265 264 262 261 261 261 261 260 259 260 261 261 260 259 257 258 257 257 257 257 255 254 255 255 255 256 259 257 256 258 260 261 261 260 261 261 261 261 260 261 261 262
283 284 284 285 285 285 286 285 285 285 285 286 286 285 283 281 280 280 279 278 277 276 275 275 274 271 269 268 267 266 266 266 264 262 261 261 259 260 261 260 258 257 256 258 259 260 260 259 258 257 256 256 259 257 256 254 254 256 257 257 258 258 258 259 260 260 260 259 260 260 261 261 261 262
283 284 284 284 285 285 285 285 285 285 285 285 284 282 281 280 280 280 279 278 277 276 275 273 270 267 267 267 266 266 265 263 261 262 261 260 256 257 257 258 254 255 255 252 256 258 258 259 260 258 252 251 253 256 256 254 253 253 256 256 257 252 255 258 259 259 259 259 259 260 260 261 261 262
282 283 284 285 285 285 284 284 284 284 283 282 280 279 279 279 279 279 279 277 275 274 272 269 267 266 266 266 265 264 263 261 260 260 258 258 256 256 256 254 253 252 254 253 251 253 257 258 258 257 257 255 254 251 252 252 253 254 254 255 256 256 255 256 257 258 259 259 257 257 258 260 260 261
283 283 283 283 283 282 281 281 280 279 279 278 277 277 276 276 276 276 275 274 272 270 268 266 266 266 266 264 263 262 261 259 258 258 258 256 257 253 254 254 252 252 254 253 253 250 251 251 253 257 257 256 259 256 253 252 253 251 251 253 252 253 255 256 257 257 258 257 256 256 257 259 260 261
282 282 282 282 281 280 279 278 278 277 276 274 273 274 275 274 274 274 273 271 269 269 268 267 266 265 264 263 262 261 259 256 256 258 261 252 254 254 253 253 250 250 253 252 249 249 250 250 252 251 250 252 253 256 257 255 255 249 251 251 252 251 254 254 256 257 257 256 256 255 256 257 259 261
281 280 279 279 279 279 278 277 276 275 274 273 273 272 272 272 273 272 270 269 268 268 267 266 265 264 264 262 261 260 259 258 254 253 252 253 252 253 252 252 250 250 251 251 251 249 249 250 251 252 252 252 253 251 257 256 250 254 251 252 251 252 253 253 255 256 256 256 256 255 255 256 257 259
279 279 278 278 278 277 277 276 275 274 274 273 272 271 271 270 270 270 267 267 267 266 265 264 263 262 261 260 259 258 257 256 254 253 252 251 251 249 249 250 251 250 250 249 250 249 249 249 248 250 250 249 248 252 251 262 260 253 255 254 253 251 252 253 254 254 255 254 255 255 254 254 256 258
278 278 277 277 276 276 275 275 274 274 273 272 272 272 271 269 267 266 266 267 266 265 264 263 261 260 259 258 257 256 257 256 253 252 251 249 250 250 250 251 252 250 249 249 249 248 248 249 248 245 245 249 249 250 254 251 258 264 257 253 251 252 254 255 254 253 255 255 255 254 255 256 256 258
277 277 276 276 275 275 275 274 273 272 272 271 271 270 267 266 264 265 265 265 264 263 263 261 259 258 258 258 257 255 253 252 253 253 251 250 251 249 250 250 248 249 249 249 249 249 248 248 248 247 249 250 248 249 248 252 253 257 263 257 254 256 257 255 253 253 254 255 256 257 257 256 257 258
276 276 275 275 274 274 273 273 273 272 271 270 269 267 265 263 263 263 264 262 262 261 259 259 258 257 257 256 256 256 255 253 252 252 251 250 251 250 248 249 248 247 247 250 248 247 247 248 249 248 249 249 250 247 247 249 252 254 257 263 260 257 257 256 255 255 256 256 257 258 258 259 261 265
273 273 273 273 272 272 272 272 271 271 270 269 267 265 263 262 263 262 261 261 260 258 259 257 257 257 254 256 255 253 253 255 255 253 253 251 250 250 249 249 250 249 248 249 250 249 247 248 249 250 250 253 251 249 249 251 252 254 254 256 263 261 259 258 257 257 257 258 258 257 256 258 257 257
272 272 270 271 270 270 270 270 269 269 267 266 265 265 264 263 263 262 261 260 259 257 256 256 257 255 255 254 254 255 255 252 251 251 251 251 252 252 252 254 250 249 250 251 249 249 250 252 253 257 252 248 249 249 250 249 253 254 254 254 260 261 263 263 260 259 258 259 258 257 256 256 257 257
271 269 268 270 270 268 268 267 267 266 265 265 264 263 262 262 261 262 261 260 258 257 256 256 255 254 254 254 254 254 255 254 253 251 252 252 253 253 254 253 251 249 250 252 252 253 251 251 251 250 247 249 251 250 249 250 251 253 253 254 254 258 260 261 263 263 261 260 258 257 257 257 256 255
268 268 267 266 267 266 266 266 265 265 263 263 262 261 261 260 261 260 258 257 257 256 255 254 253 254 254 253 253 254 254 253 253 252 252 252 252 253 252 253 253 252 252 253 253 251 250 250 249 247 247 248 249 249 251 251 251 251 252 252 253 253 254 258 260 262 263 264 265 263 261 258 256 255
267 267 265 265 266 265 265 264 264 263 262 262 260 260 260 260 259 259 258 257 257 256 255 254 253 253 253 252 252 251 253 254 253 252 252 252 252 253 253 253 254 253 253 253 253 253 251 250 249 249 249 250 248 248 251 250 250 250 251 251 251 251 251 252 253 257 258 260 262 263 265 266 266 266
266 265 264 264 264 263 262 262 261 261 260 260 260 259 259 259 259 258 257 257 256 255 254 254 253 252 252 252 253 253 252 255 253 252 252 253 253 254 254 255 254 254 253 253 252 252 251 250 249 249 249 249 248 249 251 250 251 250 251 250 251 251 250 250 250 251 252 252 258 263 264 265 266 266
Wind_Speed
12 13 16 15 14 13 12 11 11 12 11 11 11 9 12 12 12 12 7 10 10 6 13 8 7 11 10 10 8 10 10 10 12 8 8 9 8 10 14 15 14 12 10 8 6 3 1 2 4 6 8 9 10 11 11 12 13 14 15 16 18 19 19 19 20 19 20 21 22 23 24 25 26 27
8 10 11 11 11 10 10 12 11 10 11 10 9 10 10 9 13 12 12 14 8 4 6 9 4 8 10 9 8 9 10 11 14 9 9 8 8 13 16 15 13 11 9 7 4 3 3 2 4 6 8 9 10 11 12 13 14 15 16 17 17 17 17 17 18 19 20 21 22 23 23 24 25 27
9 12 13 11 12 10 11 10 9 9 9 10 10 10 9 10 13 13 12 14 3 5 6 7 5 6 9 9 8 8 8 11 14 10 10 9 11 14 11 13 11 10 8 6 6 5 3 2 5 7 8 9 10 11 12 13 13 14 14 14 14 15 16 17 17 18 19 20 21 22 23 24 25 26
11 12 13 12 11 10 9 10 9 9 10 10 10 10 11 11 11 10 10 13 14 2 1 4 5 7 9 9 9 9 7 8 15 8 9 9 13 8 6 10 11 10 9 8 8 5 2 3 5 7 8 9 10 11 11 11 12 11 11 12 13 14 15 16 17 18 19 19 21 22 23 24 24 26
9 10 11 12 12 10 11 10 9 10 11 10 10 8 9 10 9 10 12 14 14 1 2 2 4 5 8 8 9 10 9 8 8 7 6 8 8 7 6 6 10 11 10 8 6 2 1 3 5 7 7 8 9 8 9 8 8 9 10 11 12 13 14 15 16 17 18 19 20 22 23 23 24 25
9 8 10 11 10 9 11 10 11 10 9 10 10 10 10 11 11 11 11 13 12 10 3 2 3 6 7 7 8 11 10 9 8 8 7 5 7 7 6 6 6 12 9 7 5 2 2 4 5 6 6 6 6 5 6 7 8 9 10 11 12 13 14 15 16 18 19 19 20 21 22 23 24 25
8 9 9 10 10 7 9 9 10 9 10 9 11 12 10 11 12 10 12 11 11 12 5 5 7 7 7 6 9 9 7 8 9 9 8 7 6 6 6 6 5 9 9 8 5 2 2 4 4 3 3 3 3 4 5 7 7 9 10 11 12 13 14 16 17 18 18 19 20 21 22 23 24 25
9 10 9 10 9 8 10 10 9 9 9 9 10 10 10 11 12 11 10 12 11 6 6 5 6 6 7 3 6 7 7 9 8 8 7 7 7 6 5 6 6 7 9 7 3 2 1 0 1 1 1 2 3 4 5 6 7 9 10 11 12 13 15 15 16 17 17 18 19 20 21 23 24 25
9 9 10 9 8 9 11 9 9 7 10 9 10 10 10 10 10 8 8 10 8 5 6 5 2 5 3 2 6 9 10 7 8 7 7 7 7 6 5 5 5 8 7 5 4 3 2 2 3 1 1 2 3 4 5 6 7 9 11 12 13 14 14 15 15 16 17 18 19 20 21 21 23 24
9 9 10 9 9 10 11 10 9 9 10 9 10 10 9 9 8 8 6 6 7 7 5 8 5 4 6 5 5 7 9 11 8 7 7 6 5 6 5 3 4 3 3 3 2 3 3 4 2 1 1 2 3 4 5 6 8 10 11 12 13 13 13 14 15 16 17 18 18 19 20 21 22 23
9 9 9 9 9 10 10 10 10 9 10 10 11 11 11 9 7 7 7 6 7 7 6 4 6 7 3 7 8 5 6 7 10 12 9 6 3 4 6 4 3 3 3 3 6 5 5 4 3 2 3 3 4 4 5 6 8 11 12 12 12 12 13 13 15 16 16 16 17 18 19 20 21 22
8 9 9 9 9 10 10 10 10 9 10 8 9 8 7 6 7 8 6 6 7 7 7 7 7 5 8 5 3 6 8 8 4 5 6 10 6 4 2 3 6 3 4 4 3 6 4 3 3 3 4 3 4 6 6 7 9 11 12 12 12 12 12 13 14 15 15 16 16 17 18 19 20 21
8 8 8 8 8 10 12 14 13 12 11 8 8 7 7 8 8 7 6 7 7 6 6 6 7 8 7 8 9 8 9 10 10 6 5 5 6 6 5 3 2 3 4 4 5 4 4 3 3 3 2 1 5 5 7 6 9 11 11 11 10 11 12 13 13 14 14 15 16 17 18 19 19 20
8 9 8 8 12 13 13 13 14 14 13 14 11 9 9 9 9 9 8 8 8 8 9 9 10 10 9 9 10 10 8 6 8 7 7 8 6 7 5 3 2 3 4 5 5 4 3 4 2 3 2 2 4 3 4 4 6 9 10 9 10 11 12 12 13 13 14 15 16 17 17 18 19 19
9 9 8 7 9 10 10 11 14 14 15 15 15 13 13 12 12 10 9 9 10 10 9 8 9 10 10 9 8 8 8 8 10 9 7 8 8 8 9 5 2 2 6 5 4 3 2 4 4 2 3 3 4 4 4 8 9 9 8 8 9 10 11 12 13 13 14 15 16 17 17 18 18 19
8 8 8 7 7 7 8 8 8 11 13 14 14 12 12 13 14 14 13 11 8 8 8 8 9 9 9 10 8 8 8 8 7 7 8 9 10 9 7 4 5 5 7 5 4 4 1 3 4 3 3 3 3 4 6 8 8 6 7 8 9 10 11 12 12 13 14 15 16 17 17 18 19 19
8 6 6 6 6 6 10 8 7 6 7 10 12 10 11 12 13 10 11 10 10 11 10 11 10 10 10 11 9 9 10 9 9 8 8 7 7 5 6 4 4 6 7 6 4 4 1 4 3 5 2 3 3 4 6 7 5 5 7 7 8 9 11 11 12 12 14 15 16 17 18 19 19 20
7 7 7 7 7 5 6 6 7 6 6 6 6 7 6 6 8 10 10 10 9 9 10 11 11 8 10 11 10 9 11 13 11 10 9 8 9 7 6 6 6 4 4 7 5 2 1 1 4 4 2 2 3 3 5 5 4 5 6 7 8 10 10 11 11 12 14 15 16 17 18 19 19 20
7 7 8 7 7 6 7 7 8 8 7 7 7 7 7 7 7 8 8 7 8 7 6 7 8 9 9 10 12 11 9 9 9 10 11 10 8 7 7 7 5 4 2 4 4 4 3 1 3 1 2 3 3 3 4 4 4 5 6 7 8 9 10 10 11 13 14 15 16 17 18 19 19 20
8 7 7 7 7 7 8 9 14 10 8 8 9 9 8 8 7 5 6 11 10 9 8 8 9 9 9 11 11 11 10 8 9 9 9 9 9 9 8 6 3 2 1 1 3 3 2 1 3 1 2 3 2 2 3 5 6 5 5 6 8 10 9 10 12 13 14 15 15 17 18 18 19 19
7 6 7 7 7 7 7 10 15 15 13 9 10 11 11 8 8 8 8 15 16 15 14 14 15 15 17 19 20 19 18 12 11 10 10 9 9 9 8 4 4 3 1 1 3 4 3 1 1 1 2 2 0 2 2 2 6 5 5 7 10 11 10 11 12 13 13 14 16 17 18 18 19 20
5 6 10 8 7 7 7 12 17 17 14 11 11 12 12 12 11 9 8 8 10 17 18 18 18 19 19 20 21 20 19 19 13 12 11 10 9 7 7 7 5 3 1 0 2 4 2 1 1 1 2 2 0 3 1 2 3 5 4 7 11 11 10 11 12 12 13 15 16 17 18 17 18 12
6 6 7 11 8 8 9 17 18 20 15 11 12 12 13 12 12 10 12 12 12 11 12 12 12 12 14 12 10 12 19 16 9 5 7 9 9 8 7 7 6 3 2 3 3 4 1 4 0 3 2 1 1 0 0 2 2 1 0 2 5 10 10 11 12 13 14 15 15 16 17 17 16 9
5 5 5 8 13 15 16 18 20 21 20 12 11 11 11 13 13 10 11 12 12 12 11 10 10 10 8 8 7 7 8 7 5 6 7 7 7 7 7 7 7 5 3 2 4 5 0 2 3 2 3 1 2 1 2 4 2 3 1 1 2 6 8 8 8 12 13 14 15 15 16 16 15 9
6 5 5 6 11 16 16 18 20 22 19 15 13 13 12 11 12 13 11 14 16 11 11 10 9 9 8 7 7 6 6 6 5 5 5 4 4 6 7 6 6 3 1 3 9 5 3 2 2 1 1 1 1 1 2 1 5 4 1 1 2 4 2 3 3 4 8 13 13 15 14 15 16 12
4 5 5 5 9 15 16 18 20 22 20 19 10 9 12 19 21 12 10 10 9 10 9 9 8 8 8 7 7 6 6 6 5 6 6 6 7 6 3 6 7 5 3 5 9 6 7 1 5 4 1 1 3 2 2 3 4 5 3 2 1 3 3 2 3 4 5 5 5 8 11 16 14 14
5 3 4 5 11 15 16 19 20 21 22 16 9 15 19 22 22 15 9 10 10 9 9 9 11 8 7 7 7 7 6 6 6 6 6 7 7 8 7 7 4 4 5 5 5 6 5 2 4 6 4 3 2 2 2 3 3 1 5 3 1 3 2 1 2 4 5 6 6 12 12 12 13 14
5 6 6 7 14 17 17 20 21 22 19 12 16 19 22 22 18 10 10 9 10 10 9 9 9 8 6 7 7 6 5 5 6 6 6 6 7 8 8 8 8 7 7 6 4 4 5 5 3 2 4 6 4 4 3 3 1 2 3 6 5 3 2 2 2 3 4 6 6 6 6 6 6 6
5 6 9 11 15 16 17 19 20 18 19 19 18 20 22 18 9 10 10 10 10 10 9 9 8 6 5 5 7 7 7 6 6 7 7 7 8 8 9 8 7 7 6 5 5 3 4 5 5 3 3 3 5 4 2 4 1 2 2 3 5 2 4 3 3 4 5 5 6 7 6 7 7 6
9 10 11 13 15 15 13 10 9 8 10 16 17 20 17 9 9 9 10 9 10 9 8 8 8 7 6 6 8 8 7 7 7 6 6 7 5 5 6 7 7 6 7 6 5 4 4 4 5 5 5 3 4 4 4 2 4 3 3 2 5 5 2 2 4 4 4 6 7 7 7 6 7 6
5 6 7 7 10 7 10 8 8 8 10 11 12 10 8 7 8 8 10 11 10 9 8 7 8 8 8 8 9 6 6 7 4 5 7 7 4 4 5 7 6 7 5 4 4 3 3 3 4 6 4 3 2 5 4 2 3 3 5 3 2 2 3 4 4 4 5 6 7 7 6 6 6 6
2 3 5 8 7 6 6 7 7 7 7 7 8 7 6 6 6 8 10 9 7 6 7 8 8 8 7 8 7 6 6 6 5 4 6 5 4 3 4 5 2 1 1 2 2 3 3 2 1 0 2 4 3 2 1 3 5 5 6 4 2 4 3 3 5 4 5 6 7 6 6 5 6 5
3 4 5 6 6 6 7 8 7 7 8 8 7 7 6 7 7 7 7 8 7 8 9 9 11 10 7 7 6 7 6 5 5 5 7 4 7 3 4 5 5 5 4 1 0 2 2 2 2 2 3 3 5 4 2 4 5 4 5 5 1 3 3 4 3 6 6 6 6 5 7 6 5 5
3 5 4 4 4 5 6 6 7 8 8 8 7 6 7 7 7 7 6 7 8 8 9 9 9 8 8 7 6 6 7 5 5 3 6 4 4 4 4 5 2 1 1 3 1 1 4 4 4 2 1 2 3 6 7 7 7 3 4 2 1 3 3 2 4 4 5 5 7 9 7 8 5 4
4 3 3 3 5 4 5 6 6 7 8 8 8 7 6 5 6 6 6 7 7 8 8 7 7 7 8 8 7 7 7 7 6 6 4 5 4 6 7 5 3 2 2 1 0 1 2 3 4 4 4 6 5 3 7 8 2 5 1 3 2 2 4 3 3 5 5 5 4 6 8 7 7 5
2 3 4 4 4 5 5 5 6 6 7 7 7 7 7 5 4 6 6 6 7 8 8 8 7 7 7 7 6 6 7 8 6 6 6 5 6 5 4 3 3 1 2 2 1 1 1 2 2 2 2 5 4 6 3 8 9 4 1 3 4 3 3 3 4 4 5 5 4 4 6 9 10 9
5 4 5 5 4 5 6 5 6 5 5 6 6 5 6 6 5 5 6 6 7 7 7 8 8 7 7 7 7 7 7 8 6 6 6 4 4 5 5 1 2 2 2 1 0 0 1 1 1 2 1 2 2 4 7 3 6 5 8 2 2 3 5 5 5 6 5 4 5 3 6 7 9 9
6 6 6 5 5 5 5 5 5 6 5 5 6 5 5 5 6 6 6 7 7 7 7 8 7 7 7 7 8 7 6 5 6 7 6 6 6 4 5 4 3 2 2 1 1 1 1 2 2 2 2 2 2 5 5 4 2 1 6 6 1 6 4 6 6 6 8 4 5 6 5 7 8 7
5 6 6 6 6 6 6 5 5 6 6 6 5 6 7 8 7 6 6 7 7 7 7 7 7 7 8 7 7 8 8 7 6 6 6 6 6 6 4 4 3 1 2 1 1 1 1 1 2 4 4 4 4 4 2 2 5 5 7 11 7 5 6 4 7 6 6 8 7 5 5 7 9 14
5 5 5 6 6 6 6 5 5 5 6 5 5 5 8 10 7 7 7 7 7 6 7 8 8 7 6 6 7 6 6 7 8 7 7 7 4 4 5 4 4 5 3 1 1 1 1 4 5 6 5 6 4 2 3 4 6 6 7 7 8 5 4 3 6 7 8 6 7 8 9 8 7 4
5 5 5 5 6 6 6 5 5 6 6 6 6 7 7 9 7 6 7 7 8 8 7 7 8 7 7 7 7 8 8 6 6 6 5 6 6 6 6 6 3 4 4 3 3 3 5 6 5 5 4 1 0 0 2 4 8 5 4 4 2 7 11 10 6 7 7 8 7 7 8 8 8 8
5 5 4 5 6 5 6 6 6 6 6 6 7 7 6 6 6 9 8 8 8 7 8 8 7 7 7 7 7 7 8 8 7 6 7 6 6 4 6 5 5 3 5 5 5 5 2 2 2 3 2 1 0 1 5 6 8 9 5 5 6 5 8 12 14 13 9 6 5 6 6 6 3 6
5 5 5 4 5 5 5 6 6 6 6 6 6 7 7 7 7 8 7 7 7 7 7 7 7 7 6 6 6 6 6 6 6 7 6 6 6 7 6 5 5 6 6 5 2 3 2 2 2 3 2 2 3 3 7 7 6 6 8 7 7 7 7 9 11 14 15 17 15 10 6 5 4 5
5 5 4 4 5 5 5 5 6 5 6 6 6 6 7 8 8 7 7 8 8 7 7 7 6 6 6 5 5 3 5 6 6 7 7 6 6 6 5 5 5 5 5 3 2 2 1 1 2 4 3 4 4 3 7 5 6 6 6 7 6 6 9 8 8 9 9 10 11 11 11 12 13 15
4 4 5 4 5 5 5 5 5 6 6 6 6 6 6 6 7 7 6 7 6 7 7 6 6 5 5 6 6 6 4 5 6 5 6 6 6 6 5 5 4 3 3 3 3 2 3 3 1 2 2 3 3 4 6 5 6 6 6 5 9 7 6 6 7 9 9 10 8 8 9 11 13 14
Wind_Direction
232 232 228 228 233 230 228 229 228 227 223 224 224 215 218 219 238 260 251 233 223 203 200 210 220 202 198 195 185 182 194 189 181 181 175 170 175 190 194 197 197 192 193 195 200 193 91 354 321 303 304 303 302 305 308 311 312 311 310 309 311 316 317 320 325 326 326 326 326 326 326 325 322 322
245 245 242 237 241 236 230 228 225 223 222 221 220 222 226 218 229 239 255 267 168 215 194 207 199 183 196 188 183 188 194 186 181 179 175 174 176 183 189 197 193 188 185 185 152 107 69 346 296 295 292 297 302 307 309 310 309 309 309 314 317 319 325 329 329 329 329 329 329 328 326 324 322 321
240 245 243 236 239 232 232 228 222 218 215 221 218 225 214 219 224 232 239 262 238 172 195 214 183 166 189 180 177 187 192 187 184 177 176 175 171 176 181 182 184 174 161 138 107 84 47 313 288 276 285 299 304 304 304 307 310 314 320 324 327 333 334 334 333 333 333 333 330 327 325 324 323 322
231 234 238 235 234 230 229 227 220 216 217 217 220 217 215 220 219 227 239 243 256 67 221 178 167 166 166 167 175 185 187 191 183 175 173 166 161 161 152 160 150 133 126 103 80 65 28 285 274 284 294 299 298 302 310 315 323 330 333 337 337 340 340 339 337 336 335 333 330 328 326 324 324 320
231 236 238 234 230 224 226 223 221 220 220 217 223 216 217 222 212 212 225 236 252 162 333 105 160 162 151 171 177 178 179 173 174 158 152 149 148 142 132 120 120 114 103 92 82 75 291 283 284 285 291 293 296 309 316 335 347 344 345 348 348 347 343 340 340 339 337 334 330 328 327 325 324 323
227 225 235 242 239 228 228 222 224 218 218 213 215 215 211 219 218 209 214 233 237 236 93 106 112 153 178 167 176 180 171 169 155 146 140 135 134 133 128 124 119 114 111 108 115 151 245 271 276 281 287 294 315 324 336 350 351 355 1 3 357 351 348 345 343 340 336 332 331 329 327 325 325 326
231 232 234 241 239 233 232 227 228 216 220 213 216 220 211 220 221 211 212 219 229 230 196 162 163 172 181 174 175 172 164 155 151 140 139 135 121 117 127 125 118 123 123 132 139 198 274 273 279 292 307 313 321 344 350 2 11 17 15 7 358 352 349 346 343 338 334 333 331 329 327 327 328 328
230 233 237 242 237 233 232 228 226 221 217 212 219 220 217 219 220 215 210 215 226 217 163 193 174 170 161 133 150 140 139 144 143 138 125 120 121 122 120 123 112 128 132 137 146 192 257 43 70 243 276 317 344 1 13 19 28 30 16 5 356 352 348 344 338 334 333 331 331 331 330 329 328 327
234 237 237 245 231 228 233 231 227 219 217 217 217 220 219 217 220 218 206 214 213 192 174 137 139 141 100 93 143 145 144 132 108 117 130 132 122 111 110 91 109 121 131 141 152 150 140 161 175 177 298 353 27 30 31 35 42 28 11 1 355 350 342 337 335 333 333 334 333 331 330 331 330 331
233 238 244 243 233 232 230 234 228 219 220 216 219 221 220 218 216 212 206 197 197 193 173 153 135 156 142 137 140 153 147 137 117 106 105 104 110 123 112 94 93 58 96 69 85 158 160 166 138 177 81 53 44 41 44 53 37 21 6 359 350 341 336 335 335 337 336 334 333 331 332 333 333 334
233 236 240 240 233 234 233 235 230 222 220 215 221 216 219 213 200 203 198 185 184 183 156 151 149 138 140 148 143 147 139 135 144 140 135 120 120 108 114 115 80 108 113 155 165 170 185 164 148 152 91 54 51 53 66 45 30 15 3 351 341 335 336 339 339 338 336 334 333 333 334 335 336 336
234 234 236 237 234 232 234 231 232 221 223 215 223 218 211 198 192 199 184 177 181 175 168 161 154 153 143 108 50 120 131 122 124 167 151 154 143 129 97 116 142 144 136 137 153 174 138 125 131 103 75 57 58 74 63 38 27 11 353 341 336 339 342 341 340 340 338 336 335 336 337 338 338 338
235 238 238 239 238 235 236 232 230 225 218 207 217 213 193 193 192 187 175 181 177 179 167 151 147 148 150 154 148 154 164 170 166 152 121 113 122 124 121 115 101 130 145 157 159 164 168 160 145 138 100 58 86 67 56 34 20 359 343 338 342 343 342 341 342 341 338 337 337 337 338 339 339 338
230 233 232 236 234 236 236 236 235 232 224 216 212 206 187 188 189 185 179 181 182 176 175 171 163 161 165 165 167 162 164 128 108 125 133 128 129 123 120 123 163 165 146 154 164 170 165 146 153 129 140 93 91 73 39 17 6 346 339 342 346 343 344 347 346 342 338 338 338 338 339 339 339 337
232 230 227 231 232 233 236 235 233 230 226 221 220 211 196 190 183 179 183 189 181 181 182 168 167 169 164 169 164 159 143 144 150 153 147 132 140 153 151 165 129 184 164 162 151 196 177 146 160 149 109 99 85 50 29 2 351 340 339 345 345 347 350 348 344 340 339 338 338 339 338 338 337 335
231 230 226 225 222 222 224 224 227 229 226 221 217 207 197 197 195 187 181 179 182 181 163 160 173 161 167 159 161 154 150 144 130 139 150 157 159 160 167 146 161 169 160 154 154 185 147 144 140 113 91 93 75 39 13 357 349 344 343 345 350 354 350 345 341 340 338 337 338 338 338 337 336 334
228 225 227 230 220 222 219 219 215 213 219 217 205 194 191 194 194 197 202 192 180 167 165 167 170 172 158 160 172 165 155 145 142 151 157 161 156 133 139 137 119 152 159 148 147 168 168 134 128 126 94 81 73 32 6 358 352 344 344 351 357 354 347 342 339 339 337 337 337 337 337 335 334 332
224 220 220 223 225 212 206 205 202 195 194 178 169 169 174 177 186 183 160 135 147 161 162 163 170 169 160 165 159 158 153 157 162 157 156 152 152 150 140 127 123 115 163 158 141 118 134 70 120 125 105 75 50 41 3 4 357 345 351 1 357 351 342 338 338 337 337 337 336 336 335 334 333 331
222 216 218 217 219 203 201 202 191 188 175 164 162 157 158 150 147 139 135 126 126 129 135 152 151 151 158 159 161 161 162 156 151 156 155 153 139 114 96 85 103 89 11 133 126 159 148 345 90 137 92 41 38 49 8 13 11 3 1 360 355 346 339 338 337 337 337 337 337 336 335 334 332 330
220 217 208 211 209 199 205 203 198 186 164 163 160 150 135 127 119 104 112 126 127 132 139 146 156 160 157 148 149 149 143 127 117 102 95 100 115 128 141 146 149 110 332 41 117 117 136 44 128 154 54 45 41 61 30 11 15 12 1 354 350 345 341 340 338 338 339 338 337 336 335 334 331 331
220 211 203 204 205 198 199 198 195 184 169 159 151 147 145 135 119 117 126 130 134 138 141 143 141 139 143 147 148 147 140 135 131 122 122 147 149 148 148 147 148 168 132 8 92 114 141 140 111 26 352 54 194 163 121 17 5 12 356 355 351 347 345 340 339 339 340 340 339 338 336 333 331 333
221 212 208 200 197 192 190 191 188 178 171 162 159 152 143 140 133 134 133 119 125 130 130 130 131 136 140 142 144 144 143 141 140 142 158 164 152 156 158 154 151 121 102 164 128 95 159 103 78 62 312 30 269 159 156 107 13 9 346 350 350 344 343 342 341 342 343 343 342 339 335 332 335 334
215 212 207 201 192 188 186 188 185 180 176 163 163 158 150 149 147 155 143 133 129 128 123 122 123 123 128 129 129 140 143 143 140 131 135 149 155 157 155 134 113 91 214 205 181 117 209 103 46 100 9 351 283 74 347 331 329 300 176 358 341 334 348 344 342 343 345 344 340 335 331 332 337 331
223 211 203 201 198 194 190 190 187 184 175 168 162 161 159 156 160 156 139 133 130 132 124 119 112 104 104 103 105 110 122 122 105 120 146 156 148 143 147 150 151 160 177 162 170 126 153 93 143 35 154 143 290 290 319 290 288 277 262 345 319 330 340 339 339 340 340 339 336 332 328 330 336 331
217 207 208 205 203 197 194 194 191 182 173 167 169 173 172 165 143 139 133 138 131 120 117 114 112 108 101 96 96 100 100 100 95 86 77 83 113 134 145 149 167 116 169 194 153 93 151 138 146 53 26 85 202 11 272 214 290 266 231 293 295 306 301 305 333 320 331 333 330 328 324 328 332 332
222 210 207 203 200 199 195 194 191 184 177 173 169 169 149 136 140 137 128 126 120 117 118 119 113 115 116 116 112 106 100 81 82 84 80 77 55 51 92 146 156 146 186 202 149 117 113 128 170 127 130 95 290 163 289 296 253 264 304 295 275 284 290 302 311 321 326 307 317 314 319 325 328 331
213 197 196 197 197 195 191 191 190 185 178 170 167 158 143 145 139 133 128 128 124 122 122 125 116 126 132 130 127 122 104 88 75 65 59 61 70 67 60 46 63 119 128 105 96 121 109 136 161 152 179 168 162 307 253 231 292 326 311 283 281 300 280 269 310 327 320 317 310 318 320 316 324 331
191 192 194 194 195 191 188 190 190 184 176 168 170 153 148 143 139 136 134 127 127 127 128 133 132 135 140 129 128 113 96 86 77 73 59 57 65 75 71 65 69 76 82 84 81 92 107 119 160 182 145 165 173 195 242 291 244 235 246 301 310 263 261 305 315 318 318 319 308 311 299 302 311 318
196 204 203 200 198 195 194 196 189 177 176 170 166 154 147 142 140 140 135 131 131 138 148 152 146 134 123 109 109 98 101 103 90 85 66 67 71 78 83 75 67 58 63 59 70 71 109 126 149 141 125 173 172 234 161 226 200 266 265 327 318 305 305 311 330 318 323 316 311 307 303 306 306 309
207 206 200 199 201 201 200 192 182 170 169 165 162 148 140 137 143 139 134 134 143 151 152 153 146 128 110 98 118 118 116 101 107 110 101 96 78 91 103 87 57 50 47 44 56 66 78 104 131 143 149 194 201 206 216 214 280 259 272 245 262 301 218 159 310 327 322 319 308 301 294 293 293 298
201 200 199 194 195 193 192 171 141 130 145 145 138 133 138 144 142 141 148 157 155 149 137 123 105 104 111 113 118 121 113 108 95 101 116 107 116 105 95 99 85 66 31 27 35 53 71 97 137 147 157 188 191 208 220 189 243 273 280 247 243 257 283 332 318 320 319 311 300 297 294 290 290 286
187 175 193 192 183 173 149 132 134 135 127 121 121 123 134 134 120 110 98 71 75 82 102 107 112 108 121 126 122 114 107 115 103 106 109 119 115 124 115 77 85 70 25 351 358 9 43 42 46 228 171 170 199 253 131 171 220 252 267 272 250 283 287 299 313 314 319 311 300 299 291 288 293 290
175 171 187 191 178 161 146 136 132 123 117 111 112 114 109 95 99 106 121 129 125 128 122 124 124 128 123 121 115 117 110 109 107 89 90 86 118 79 70 116 140 139 169 244 318 325 359 352 333 271 235 221 207 185 186 287 270 224 228 262 316 295 302 303 318 315 325 314 293 291 297 297 283 297
176 189 201 184 157 143 133 130 130 128 118 111 105 109 105 110 122 127 124 124 129 124 126 133 133 134 129 131 137 131 125 106 89 90 112 117 125 113 121 132 151 126 141 205 261 307 327 338 336 327 313 268 252 207 187 202 246 249 221 262 248 284 288 316 310 311 316 302 307 312 311 309 302 290
186 183 130 124 125 120 121 121 123 120 124 123 120 112 113 117 123 122 119 127 122 121 122 124 125 131 139 143 147 144 141 130 107 69 67 96 90 119 135 138 155 156 161 148 259 330 10 350 1 354 345 2 357 311 217 186 162 222 146 234 201 239 279 307 315 309 304 298 297 295 298 294 303 308
122 100 107 110 116 122 121 117 113 121 124 128 123 123 126 125 119 126 121 126 120 122 123 126 131 133 133 139 142 135 132 124 119 112 104 107 108 96 96 121 136 143 142 168 205 305 85 32 54 65 34 342 19 333 332 198 179 153 94 306 320 322 293 319 305 298 294 287 279 284 301 310 308 316
124 107 113 107 104 114 119 124 119 114 118 120 123 129 139 137 120 98 107 112 110 118 129 129 133 133 128 131 127 130 132 133 133 132 121 111 106 118 116 108 113 136 148 214 152 36 77 72 49 96 83 16 349 277 260 326 286 244 152 200 288 305 310 311 316 308 286 268 279 266 285 293 296 300
130 127 119 111 109 101 109 117 118 117 112 110 117 111 98 101 105 110 113 112 118 119 124 123 127 126 132 139 133 130 117 112 123 135 144 142 133 139 153 173 175 151 164 133 84 77 86 114 105 135 124 200 274 279 298 301 8 357 120 124 332 304 310 309 305 300 303 281 272 286 285 282 285 291
123 128 133 125 122 123 127 134 135 134 126 125 129 130 129 100 108 113 115 115 119 121 119 122 130 138 140 144 140 143 140 133 137 152 155 168 160 152 151 146 154 153 121 160 56 77 77 135 165 165 154 162 193 222 190 262 270 259 298 303 307 293 288 280 288 295 290 305 301 286 262 259 283 292
100 92 106 115 110 110 106 116 115 126 129 128 124 114 115 124 128 131 129 133 125 125 126 131 132 125 126 137 134 123 132 157 163 167 170 164 158 150 151 157 158 148 119 151 228 251 162 220 197 197 202 207 218 208 198 247 267 281 276 290 272 249 268 256 287 299 299 297 304 309 308 313 303 298
108 110 107 118 118 119 121 119 125 122 118 119 119 129 130 122 139 148 146 141 136 132 127 134 141 142 147 151 154 153 156 167 161 159 153 146 152 154 154 145 135 147 153 209 203 219 229 226 222 214 159 158 62 39 344 322 293 286 303 288 282 316 305 304 299 297 285 294 297 297 299 307 310 318
116 116 120 124 129 129 128 133 132 130 134 140 138 139 142 143 142 138 135 130 125 125 129 138 143 142 150 161 162 159 157 165 164 159 153 147 152 152 161 156 157 158 156 207 213 219 216 98 66 76 74 74 44 224 260 240 274 290 284 301 303 301 306 302 299 294 290 281 282 283 291 295 308 299
119 121 128 118 114 129 134 140 145 143 144 140 140 141 139 139 140 136 130 136 139 137 142 142 149 152 161 166 171 163 147 150 155 154 153 157 156 157 165 178 177 177 185 203 166 136 103 62 75 76 64 127 215 176 246 260 258 284 296 303 301 316 311 307 306 300 295 290 284 274 257 256 300 288
121 120 119 136 133 135 133 139 136 132 136 140 141 146 149 148 148 151 148 149 151 154 152 150 157 158 157 153 143 138 144 150 150 151 161 167 166 163 164 171 178 185 182 172 135 124 109 115 150 158 162 221 187 195 251 270 274 263 277 291 297 310 307 316 318 313 303 289 287 286 275 265 263 273
118 118 133 134 126 112 120 124 130 131 133 133 142 146 145 141 141 146 151 152 150 145 148 150 150 140 135 143 147 152 157 150 147 152 148 149 159 168 174 170 164 151 152 149 140 181 157 154 128 135 187 214 182 214 248 249 267 293 287 299 298 302 304 320 323 322 324 319 306 307 301 296 293 294